Retour au catalogue

COSMOS 1856

ActifMilitaireLEO
NORAD 18117·PAYLOAD·🇷🇺 Russia

Lancé Jun 16, 1987 depuis Plesetsk Cosmodrome

Loading…

Prochains Passages (prochaines 24 heures)

TLE

FraisSource: Space-Track

Époque: Sep 14, 2026, 19:41 UTC

1 18117U 87051E   26257.82041140 -.00000025  00000-0 -54798-4 0  9997
2 18117  74.0005  93.8226 0029065 105.5710 266.5660 12.52533988794587

Suivez COSMOS 1856 en temps réel avec AllMySat

Download on the App Store